[ hide orbit diagram ]
For accurate long-term ephemerides, please instead use our Horizons system.This orbit viewer was implemented using two-body methods, and hence should not be used for determining accurate long-term trajectories (over several years or decades) or planetary encounter circumstances.
Orbital Elements at Epoch 2459000.5 (2020-May-31.0) TDB
Reference: JPL 46 (heliocentric ecliptic J2000)
Element | Value | Uncertainty (1-sigma) | Units |
e | .06995513828861384 | 3.0695e-08 | |
a | 2.625086432012702 | 6.3783e-09 | au |
q | 2.441448147641689 | 8.0811e-08 | au |
i | 7.521705810196919 | 4.2703e-06 | deg |
node | 294.5811360522623 | 2.3149e-05 | deg |
peri | 82.44647834960001 | 3.9507e-05 | deg |
M | 119.1023074958281 | 3.136e-05 | deg |
tp | 2458486.537405645287 (2019-Jan-03.03740565) | 0.00013516 | TDB |
period | 1553.509229652649 4.25 | 5.6619e-06 1.55e-08 | d yr |
n | .2317334156299109 | 8.4457e-10 | deg/d |
Q | 2.808724716383715 | 6.8244e-09 | au |
|
| | Orbit Determination Parameters
Additional Information
|
[ show covariance matrix ]
Physical Parameter Table
Parameter |
Symbol |
Value |
Units |
Sigma |
Reference |
Notes |
absolute magnitude |
H |
9.1 |
|
n/a |
MPO502156 |
IRAS observations used: 27 |
diameter |
diameter |
95.07 |
km |
5.4 |
IRAS-A-FPA-3-RDR-IMPS-V6.0 |
IRAS observations used: 27 |
rotation period |
rot_per |
22.627 |
h |
n/a |
LCDB (Rev. 2020-October); Warner et al., 2009 |
Published Reference List: [Behrend, R. (2005) Observatoire de Geneve web site, http://obswww.unige.ch/~behrend/page_cou.html] [Aznar, A.M.; Carreno Garcerain, A.; Arce Masego, E.; Brines Rodriques, P.; et al. (2016) Minor Planet Bull. 43, 257-263.] [Durech, J.; Hanus, J.; Oszkiewsicz, D.; Vanco, R. (2016) Astron. Astrophys. 587, A48.] [Hanus, J.; Durech, J.; Oszkiewicz, D.A.; Behrend, R.; et al. (2016) Astron. Astrophys. 586, A108.] |
geometric albedo |
albedo |
0.0548 |
|
0.007 |
IRAS-A-FPA-3-RDR-IMPS-V6.0 |
IRAS observations used: 27 |
B-V |
BV |
0.698 |
|
0.033 |
EAR-A-5-DDR-UBV-MEAN-VALUES-V1.2 |
#obs=4; phase (min.=11.61, mean=14.85, max.=17.86) deg. |
U-B |
UB |
0.376 |
|
0.019 |
EAR-A-5-DDR-UBV-MEAN-VALUES-V1.2 |
#obs=4; phase (min.=11.61, mean=14.85, max.=17.86) deg. |
Tholen spectral type |
spec_T |
C |
|
n/a |
EAR-A-5-DDR-TAXONOMY-V4.0 |
used 7 color indices |
|
407 Arachne (A895 TB) Discovered 1895-Oct-13 by Wolf, M. at Heidelberg |
Reference: DISCOVERY.DB | Last Updated: 2003-08-29 |
|
[ show close-approach data ]
|